FENGYUN 1C DEB

Satellite information

Favourite Embed

Satellite Type and Status

DEBRISIN ORBIT

Key statistics

Satellite FENGYUN 1C DEB at a glance.

Uptime

9495

Days in orbit

Revolutions

≈ 14.0

Per day

Orbit

SSO

Sun Synchronous Orbit

Inclination

99.2

Latest

Satellite identification and parameters

Extended collection of information and parameters for FENGYUN 1C DEB.

Object identification

Identified? True

Debris? True

Object name: FENGYUN 1C DEB

International designator: 1999-025DGY

Object number (NORAD): 33711

Object ID (CCSDS): 33711

Country: PEOPLES REPUBLIC OF CHINA (PRC)

Current information (Y/N): Y

RCS size: SMALL

Orbital parameters

Period: 102.819 minutes

Inclination: 99.2239 deg

SMA: 7270.148 km

Apoapsis: 960.999 km

Periapsis: 823.026 km

RAAN: 178.9571 deg

Eccentricy: 0.009489

Argument of periapsis: 290.4789 deg

Mean anomaly: 97.5151 deg

Mean motion: 14.00515448 rev/day

Mean motion (dot): 0.0000087 rev/day2

B* drag term: 0.00059369 1/REarth

Two-line elements (TLE)

Creation date: May 8, 2025, 3:01 a.m.

Reference frame: TEME

Reference center: EARTH

Epoch: May 7, 2025, 2:28 a.m. UTC

TLE line 0: 0 FENGYUN 1C DEB

TLE line 1: 1 33711U 99025DGY 25127.10289762 .00000870 00000-0 59369-3 0 9992

TLE line 2: 2 33711 99.2239 178.9571 0094890 290.4789 97.5151 14.00515448888574

Live tracking on map

Real-time ground track for satellite FENGYUN 1C DEB.

In-orbit conjunctions

A list of the most updated potential collisions computed for object FENGYUN 1C DEB.

Target Orbit TCA Probability of collision Miss distance Type
SL-8 R/B LEO 2025-04-23 13:14:54 0.0001358304 49.0 (m) ROCKET BODY
DMSP 5D-2 F8 (USA 26) SSO 2024-11-13 12:55:15 0.0001251221 857.0 (m) PAYLOAD
COSMOS 2181 LEO 2024-08-26 21:41:33 0.0005429036 182.0 (m) PAYLOAD
SL-16 R/B LEO 2024-08-19 22:14:27 0.0001156416 108.0 (m) ROCKET BODY

Associated space launch

Chinese polar orbiting meteorological satellite

FENGYUN 1C DEB was lifted into orbit during the mission ‘Long March 4B | Feng Yun 1C’, on board a Long March 4B space rocket.

The launch took place on May 10, 1999, 1:33 a.m. from Launch Complex 7.

For more information about the launch, click the button.

Launch to space Long March 4B | Feng Yun 1C
Long March 4B | Feng Yun 1C

Agency: N/A

Status: Launch Successful

Launch date: May 10, 1999, 1:33 a.m. UTC

Rocket: Long March 4B

Launch pad: Launch Complex 7

Location: Taiyuan Satellite Launch Center, People's Republic of China

...

Latest news about this satellite

There are no fresh news available about this satellite. Check back as we update our databases every day.


Newsletter sign-up

Weekly statistics, charts and insights to help you stay on top of the space industry.